Hourly Data Report for October 28, 2013

All times are specified in Local Standard Time (LST). Add 1 hour to adjust for Daylight Saving Time where and when it is observed.

IQALUIT CLIMATE
NUNAVUT

63°44'50.000" N
68°32'40.000" W
33.50 m
2402592
71321
XFB

Download Data

Hourly Data (October 2013)
Hourly Data Report for October 28, 2013
Temp Definition
°C
Dew Point Temp Definition
°C
Rel Hum Definition
%
Wind Dir Definition
10's deg

Wind Spd Definition
km/h
Visibility Definition
km
Stn Press Definition
kPa
Hmdx Definition


Wind Chill Definition


Weather Definition


TIME
00:00 -5.1 -5.3 98 34 4   99.91   -7 LegendNANA
01:00 -5.6 -5.8 98 32 9   99.90   -10 LegendNANA
02:00 -6.7 -7.1 97 32 9   99.90   -11 LegendNANA
03:00 -9.2 -9.6 97 36 7   99.89   -13 LegendNANA
04:00 -10.9 -11.4 96 2 6   99.88   -15 LegendNANA
05:00 -10.2 -10.7 96 1 6   99.90   -14 LegendNANA
06:00 -9.6 -10.0 97 3 6   99.88   -13 LegendNANA
07:00 -9.0 -9.3 98 2 4   99.89   -11 LegendNANA
08:00 -6.2 -6.2 100 1 2   99.86   -7 LegendNANA
09:00 -4.8 -4.8 100 9 9   99.82   -9 LegendNANA
10:00 -4.4 -5.5 92 11 11   99.78   -9 LegendNANA
11:00 -3.7 -4.9 91 11 15   99.74   -9 LegendNANA
12:00 -3.3 -3.9 96 12 17   99.69   -9 LegendNANA
13:00 -2.8 -4.5 88 12 22   99.63   -9 LegendNANA
14:00 -2.6 -4.0 90 11 24   99.59   -9 LegendNANA
15:00 -2.1 -3.5 90 12 26   99.56   -9 LegendNANA
16:00 -2.1 -3.6 89 12 26   99.52   -9 LegendNANA
17:00 -1.1 -2.6 90 13 32   99.51   -8 LegendNANA
18:00 -0.8 -2.6 88 14 32   99.49   -8 LegendNANA
19:00 -0.8 -2.0 92 14 28   99.48   -7 LegendNANA
20:00 -1.3 -2.3 93 13 32   99.48   -8 LegendNANA
21:00 -1.7 -2.1 97 13 30   99.47   -9 LegendNANA
22:00 -2.9 -5.4 83 25 17   99.50   -8 LegendNANA
23:00 -5.4 -6.7 91 33 22   99.57   -12 LegendNANA

Notes on Data Quality.

Legend

  • E = Estimated
  • M = Missing
  • NA = Not Available
  • ‡ = Partner data that is not subject to review by the National Climate Archives
Date modified: